Voltar ao catálogo

STARLINK-38267

AtivoComunicaçõesSSO
NORAD 100301·PAYLOAD·🇺🇸 United States

Lançado Aug 12, 2026 de Vandenberg Space Force Base

Loading…

Próximas Passagens (próximas 24 horas)

TLE

AtualizadoSource: Space-Track

Época: Sep 14, 2026, 14:57 UTC

1 A0301U 26184A   26257.62357268  .00022287  00000-0  61740-3 0  9998
2 A0301  97.2836 122.8831 0002451  87.3052 272.8473 15.36974191  6468

Acompanhe STARLINK-38267 em tempo real com AllMySat

Download on the App Store